Temperature
18 17 17 16 16 16 16 16 16 15 15 15 15 15 15 15 14 14 14 14 14 14 14 14 14 14 14 14 13 14 13 13 13 14 14 14 14 13 13 13 13 13 13
18 17 16 16 16 16 16 16 16 15 15 15 15 15 15 15 14 14 14 14 14 14 14 14 14 14 14 13 13 13 13 13 13 14 14 14 14 13 13 13 13 13 13
18 17 17 16 16 16 16 16 16 15 15 15 15 15 14 14 14 14 14 14 14 14 14 14 14 13 13 13 13 13 13 13 13 13 14 14 14 14 13 13 13 13 13
18 17 17 16 16 16 16 16 16 16 15 15 15 15 14 14 14 14 14 14 14 14 14 14 13 13 13 13 13 13 13 13 13 13 13 13 13 14 14 13 13 13 13
18 17 17 16 16 16 16 16 15 15 15 15 15 15 14 14 14 14 14 14 14 13 13 13 13 13 13 13 13 13 13 13 13 13 13 13 13 13 14 13 13 13 13
18 17 16 16 16 16 16 15 15 15 15 15 15 14 14 14 14 14 14 14 14 13 13 13 13 13 13 13 13 13 12 12 12 12 13 13 13 13 13 13 13 13 12
18 17 16 16 16 16 15 15 15 15 15 15 15 15 14 14 14 14 14 14 14 13 13 13 13 13 13 13 13 12 12 12 12 12 12 12 13 13 13 13 13 13 12
18 17 17 16 16 16 15 15 15 15 15 15 15 14 14 14 14 14 14 13 13 13 13 13 13 13 13 12 12 12 12 12 12 12 12 12 12 12 12 13 13 13 13
18 17 17 16 16 16 15 15 15 15 14 14 14 14 14 14 14 13 13 13 13 13 13 13 13 13 12 12 12 12 12 12 12 12 12 12 12 12 12 12 12 13 13
18 17 17 16 16 16 15 15 15 15 14 14 14 14 14 13 13 13 13 13 13 13 13 13 13 13 12 12 12 12 12 12 12 12 12 12 12 12 12 12 12 12 12
18 17 16 16 16 16 15 15 15 14 14 14 14 14 14 13 13 13 13 13 13 13 13 13 13 12 12 12 12 12 12 12 12 12 12 12 12 12 12 12 11 12 12
17 17 16 16 15 15 15 15 15 14 14 14 14 14 14 13 13 13 13 13 13 13 13 12 12 12 12 12 12 12 12 12 12 12 12 12 12 12 12 11 11 11 11
16 16 16 15 15 15 15 15 15 14 14 14 14 13 13 13 13 13 13 13 13 12 12 12 12 12 12 12 12 12 12 11 11 11 11 12 12 11 11 11 11 11 11
16 16 15 15 15 15 15 15 14 14 14 13 13 13 13 13 13 13 12 12 12 12 12 12 12 12 12 12 12 12 11 11 11 11 11 11 11 11 11 11 11 11 11
16 15 15 15 15 15 14 14 14 14 13 13 13 13 13 13 13 12 12 12 12 12 12 12 12 12 12 11 11 11 11 11 11 11 11 11 11 11 11 11 11 11 11
15 15 15 14 14 14 14 14 14 13 13 13 13 13 12 12 12 12 12 12 12 12 11 11 11 11 11 11 11 11 11 11 11 11 11 11 11 11 11 11 11 11 10
15 15 15 14 14 14 14 14 14 13 13 13 13 12 12 12 12 11 11 11 11 11 11 11 11 11 11 11 11 11 10 10 10 10 10 10 10 10 10 10 10 10 10
14 14 14 14 14 14 14 13 13 13 12 12 12 12 12 11 11 11 11 11 11 11 11 10 10 10 10 11 11 10 10 10 10 10 10 10 10 10 10 10 10 10 10
14 14 14 14 13 13 13 13 12 12 12 12 12 11 11 11 11 11 11 11 11 10 10 10 10 10 10 10 10 10 9 9 9 9 9 9 9 10 10 9 9 9 9
13 13 13 13 13 13 13 12 12 12 12 12 11 11 11 11 11 11 10 10 10 10 10 10 9 9 9 10 10 9 9 9 9 9 9 9 9 9 9 9 9 9 9
13 13 13 13 13 12 12 12 12 12 12 11 11 11 10 10 10 10 10 10 10 9 9 9 9 9 9 9 9 9 9 9 9 8 8 9 9 9 9 9 8 8 8
12 12 13 12 12 12 12 12 11 11 11 11 11 10 10 10 10 10 9 9 9 9 9 9 8 8 8 8 8 8 8 8 8 8 8 8 8 8 8 8 8 8 8
12 12 12 11 11 11 12 11 11 11 11 10 10 10 10 9 9 9 9 9 9 9 8 8 8 8 8 8 8 8 8 8 8 8 8 8 8 8 8 8 8 8 7
11 11 11 11 11 11 11 11 11 10 10 10 10 10 9 9 9 9 9 9 8 8 8 8 8 8 7 7 8 8 8 8 8 7 7 7 7 7 7 7 7 7 7
11 11 11 11 10 10 10 10 10 10 10 9 9 9 9 9 8 8 8 8 8 8 8 8 8 7 7 7 7 7 7 7 7 7 7 7 7 7 7 6 6 6 6
10 10 10 10 10 10 10 10 9 9 9 9 9 8 8 8 8 8 8 8 8 8 8 8 7 7 7 7 7 7 7 7 7 7 6 6 6 6 6 6 6 6 6
Wind_Speed
6 6 5 5 5 5 4 5 5 5 4 3 3 3 3 2 3 2 3 3 3 3 4 3 4 3 3 2 3 3 3 2 2 2 3 3 3 4 3 3 3 4 4
7 7 6 6 6 5 5 5 4 4 4 3 3 2 3 2 2 2 2 2 3 3 3 3 3 2 2 2 2 2 1 1 1 1 0 1 3 3 3 3 2 3 3
8 8 7 7 6 6 5 5 4 4 4 4 3 3 3 2 3 2 2 1 2 2 2 2 2 2 1 1 1 1 1 1 1 1 2 1 1 2 2 2 2 2 2
8 8 8 7 7 6 6 5 5 5 4 4 4 4 3 3 2 2 2 2 2 2 2 1 1 1 1 1 0 0 0 1 0 1 1 2 2 1 1 1 1 1 1
9 9 9 8 7 7 6 5 6 5 4 4 4 4 3 2 2 2 2 2 2 1 1 1 0 0 1 0 0 0 1 1 1 1 1 1 1 2 1 0 1 1 1
9 9 8 8 7 6 6 6 6 5 5 5 5 5 4 3 3 3 2 2 1 1 1 0 0 0 0 0 0 0 0 1 1 1 1 1 1 1 1 1 1 0 1
10 10 9 9 8 7 7 6 6 6 6 6 6 6 5 4 4 3 3 3 2 2 2 1 1 1 1 1 1 1 1 1 1 2 2 2 2 2 2 2 1 1 1
10 10 10 9 8 8 7 7 7 7 6 6 6 6 5 4 3 3 3 3 3 2 2 2 2 2 2 1 1 2 2 1 1 1 1 2 2 2 2 2 2 2 1
9 9 9 9 8 8 8 7 7 7 6 6 6 5 5 5 4 4 4 3 3 3 3 3 3 2 2 2 2 2 2 2 2 2 2 2 1 2 2 2 3 3 2
8 9 8 8 8 8 7 7 6 6 6 6 5 4 4 4 4 4 4 4 4 4 4 4 4 3 3 3 2 3 2 3 2 2 2 2 2 2 2 3 3 4 3
7 8 8 8 7 7 7 7 6 6 5 5 5 4 4 4 4 4 4 4 4 4 5 5 4 4 3 3 3 3 3 4 3 3 3 3 3 2 2 3 3 3 3
5 6 7 7 7 7 7 7 7 6 5 5 5 5 4 4 4 4 4 4 4 4 4 4 4 4 4 4 4 4 4 4 4 3 3 3 2 3 3 3 4 4 4
4 5 6 7 7 7 7 7 7 6 6 5 5 5 5 5 4 4 4 4 4 4 4 4 4 4 4 4 4 5 5 5 4 4 4 4 3 4 3 3 4 3 3
4 5 6 6 7 7 7 7 6 6 6 6 6 5 5 5 5 4 4 4 4 3 4 4 4 4 4 5 5 5 5 5 4 4 4 4 4 4 4 3 4 3 3
4 5 6 6 6 7 7 7 6 6 6 6 6 5 5 5 4 4 4 3 3 3 3 4 4 4 4 4 4 4 5 5 4 4 3 3 2 3 2 3 3 3 3
4 4 5 6 6 6 7 7 6 6 6 6 5 4 4 4 5 5 4 4 3 3 3 3 3 3 2 1 1 4 4 4 4 4 3 3 3 2 1 1 2 2 3
3 4 5 5 5 5 6 6 6 6 6 6 5 5 4 4 5 5 5 4 4 4 4 4 4 4 3 3 2 3 4 4 3 4 4 3 3 3 4 3 3 2 2
4 4 4 4 4 4 5 5 5 5 6 6 6 5 5 5 5 5 5 5 5 5 4 4 4 3 2 3 3 3 4 4 3 3 4 4 4 3 4 4 3 3 3
3 3 4 4 4 4 4 5 5 5 5 6 6 6 6 5 5 5 5 5 5 5 4 4 4 4 4 3 3 4 4 4 4 4 4 4 4 1 3 4 4 4 2
2 2 2 3 3 3 4 5 5 5 6 6 6 6 6 6 6 5 5 4 4 4 4 4 4 5 4 4 4 5 4 4 4 3 3 3 3 2 3 5 4 4 3
3 2 2 2 3 3 4 5 5 5 5 5 5 5 6 6 6 5 4 4 4 4 4 4 4 4 4 4 5 5 4 4 4 4 3 2 3 2 3 4 4 3 3
2 2 2 2 2 3 4 5 5 4 4 4 5 5 5 5 5 5 4 4 4 4 4 4 4 3 3 3 4 5 5 4 4 4 3 2 3 2 3 3 2 1 2
3 2 2 3 3 3 4 5 4 4 4 4 5 5 5 5 5 5 4 4 4 4 4 4 3 3 3 2 3 5 5 4 4 3 1 1 3 3 3 2 3 3 3
3 3 3 4 3 3 4 4 3 4 4 5 5 5 5 5 5 4 4 4 4 4 4 4 4 3 3 3 3 3 3 4 4 3 2 3 3 3 2 2 3 4 3
4 4 4 5 4 4 4 3 4 4 5 5 5 5 5 5 4 4 3 4 4 4 4 4 4 4 4 3 2 3 3 4 4 3 3 3 3 3 3 3 3 3 3
4 4 5 5 5 4 4 4 4 5 5 5 5 4 4 4 4 3 2 2 3 3 4 4 4 4 3 2 3 4 4 3 4 4 4 4 4 4 4 4 4 4 4
Wind_Direction
179 171 171 169 168 165 162 152 152 150 147 143 143 137 129 122 101 80 71 70 68 73 77 78 79 76 83 88 92 87 92 82 77 91 91 91 85 81 78 70 68 69 65
182 177 177 175 180 173 169 162 156 154 156 153 153 151 138 134 114 104 90 76 75 77 77 77 85 90 93 98 92 93 89 88 43 17 73 139 135 100 93 87 77 72 73
192 182 183 182 184 183 179 174 167 161 165 159 151 148 138 143 138 133 106 80 73 80 75 70 81 84 90 94 109 127 103 82 85 13 346 341 58 117 112 91 97 79 72
197 187 186 187 187 187 187 183 174 170 167 161 167 170 175 166 162 156 144 150 120 94 79 76 71 91 76 88 125 145 232 306 330 39 349 350 6 306 150 130 98 76 67
196 188 188 189 186 181 184 186 177 174 171 173 177 194 192 180 168 168 166 165 143 128 110 82 68 95 118 78 39 335 287 279 313 324 329 347 316 293 286 184 149 134 97
191 187 185 185 181 176 180 184 183 180 180 185 192 203 198 192 181 185 188 187 171 182 177 176 235 264 257 238 212 209 289 307 310 298 295 292 291 293 295 266 235 165 124
187 186 183 184 181 179 182 186 187 186 189 195 202 207 209 209 207 204 206 210 201 209 220 205 216 229 252 258 244 239 268 268 277 280 298 303 292 301 292 279 266 249 183
186 186 187 187 186 184 185 189 191 193 195 204 210 211 210 215 219 213 215 219 224 226 226 215 217 222 231 233 226 255 264 271 259 273 274 282 286 275 274 279 278 264 223
187 191 191 192 190 189 190 193 193 196 199 206 211 211 213 215 220 220 219 224 230 231 230 219 219 222 221 230 223 237 246 257 272 276 267 269 276 273 276 269 270 274 267
191 192 194 195 195 194 194 194 198 199 199 203 205 206 213 214 220 225 224 223 224 226 222 219 218 219 215 219 224 243 258 245 242 265 273 269 264 258 259 260 261 270 278
193 193 195 195 196 193 190 190 194 197 196 201 202 202 207 212 216 220 226 225 223 225 222 219 221 222 223 221 214 236 243 247 243 235 251 260 263 249 243 249 248 254 260
199 197 195 191 190 191 191 191 190 191 194 197 198 199 200 204 209 214 217 221 224 225 227 221 226 230 233 233 226 227 238 245 247 246 248 257 251 250 257 254 251 248 249
198 191 193 192 190 189 191 192 191 194 192 193 199 199 201 205 209 214 215 218 222 225 223 225 226 229 235 237 239 236 239 244 248 249 250 255 255 251 251 251 255 250 241
203 194 195 196 193 192 193 194 196 197 196 194 199 204 208 208 213 217 222 220 220 221 226 228 228 234 237 235 239 243 246 245 246 249 252 258 257 260 260 249 248 246 235
217 204 200 200 198 197 198 199 201 201 201 200 203 207 209 207 212 215 220 219 219 225 225 230 230 232 237 239 239 245 246 245 242 242 246 260 290 314 294 266 248 234 233
234 216 209 206 206 203 202 202 203 202 201 202 204 200 205 204 210 215 215 216 217 225 225 226 225 224 223 173 248 260 242 238 238 237 239 240 233 225 209 313 327 290 248
247 228 216 211 213 212 207 204 202 198 199 200 200 199 204 209 213 213 212 214 217 221 225 226 223 225 207 156 194 258 256 244 242 243 244 242 248 238 224 203 203 230 282
263 244 228 217 212 205 201 195 193 193 197 202 203 203 207 212 214 214 216 220 220 217 219 222 223 229 217 163 189 226 239 245 249 252 251 245 245 239 242 227 222 231 237
279 260 236 222 208 198 191 186 189 195 201 208 210 209 209 211 213 215 219 221 222 220 218 221 222 224 221 181 204 233 235 239 242 245 250 247 245 218 249 243 232 229 230
293 274 238 214 206 201 193 195 200 204 210 212 213 211 209 209 211 214 216 217 216 221 221 223 227 231 235 187 205 234 232 238 241 244 238 234 248 211 229 236 235 235 242
298 275 233 215 215 209 203 209 211 217 218 211 209 209 208 207 205 206 208 211 215 216 221 225 228 235 242 206 201 225 231 231 234 235 234 216 173 182 204 243 244 251 264
298 264 230 230 223 214 214 219 222 221 215 206 205 205 203 200 199 199 204 207 209 211 215 223 226 231 235 237 206 210 233 258 239 239 240 214 150 181 209 230 244 251 248
281 260 238 239 236 227 223 224 223 215 208 206 206 204 201 201 201 198 199 205 208 212 216 221 226 228 232 223 204 209 221 245 246 244 243 152 160 186 210 221 226 222 235
274 254 243 243 244 240 238 236 222 212 211 210 210 208 204 203 204 205 206 208 210 216 220 223 228 232 229 230 222 220 217 216 231 235 191 176 183 206 231 220 224 234 237
268 249 243 245 246 244 243 232 221 217 221 221 215 210 208 207 210 215 215 219 224 223 227 231 232 233 236 239 239 232 231 225 222 224 223 221 217 224 228 229 229 232 231
264 253 247 244 246 245 241 228 219 221 226 226 219 213 207 206 211 212 216 192 218 216 223 237 241 248 253 235 212 221 225 224 209 213 223 223 226 230 232 232 232 232 231
Height
1529 1530 1531 1532 1534 1535 1535 1536 1537 1537 1538 1538 1538 1539 1539 1539 1540 1539 1540 1540 1540 1539 1539 1539 1539 1538 1538 1538 1538 1537 1537 1537 1537 1538 1538 1537 1537 1537 1536 1537 1537 1537 1537
1527 1529 1530 1531 1532 1534 1535 1536 1536 1537 1538 1538 1539 1539 1539 1540 1540 1540 1540 1540 1540 1540 1540 1540 1539 1539 1538 1538 1538 1538 1538 1538 1538 1538 1538 1538 1539 1538 1537 1537 1537 1537 1537
1524 1526 1528 1529 1531 1532 1533 1534 1535 1536 1537 1537 1538 1538 1539 1540 1540 1540 1540 1540 1540 1540 1540 1540 1540 1539 1539 1539 1538 1538 1538 1538 1538 1538 1539 1538 1538 1539 1539 1538 1538 1537 1537
1522 1524 1526 1528 1529 1531 1532 1534 1535 1535 1536 1537 1537 1538 1539 1539 1540 1540 1540 1540 1540 1540 1540 1540 1540 1539 1539 1539 1538 1538 1538 1538 1539 1538 1538 1539 1538 1538 1539 1539 1538 1537 1537
1519 1522 1524 1526 1528 1529 1531 1532 1534 1535 1535 1536 1537 1538 1538 1539 1539 1540 1540 1540 1540 1540 1540 1540 1540 1539 1539 1539 1538 1538 1538 1538 1538 1538 1538 1538 1537 1538 1538 1538 1538 1538 1537
1517 1519 1522 1524 1526 1528 1529 1531 1532 1533 1534 1535 1536 1537 1537 1538 1538 1539 1539 1539 1539 1539 1539 1539 1539 1539 1539 1538 1538 1538 1538 1537 1537 1537 1537 1537 1537 1537 1537 1537 1537 1537 1537
1514 1517 1520 1522 1524 1526 1527 1529 1530 1531 1532 1533 1534 1535 1536 1536 1537 1537 1538 1538 1538 1538 1538 1538 1538 1538 1538 1538 1537 1537 1537 1537 1537 1537 1537 1537 1537 1537 1537 1537 1537 1537 1536
1512 1515 1517 1519 1522 1523 1525 1527 1528 1529 1530 1531 1532 1533 1534 1535 1535 1536 1536 1536 1537 1537 1537 1537 1537 1537 1537 1537 1537 1537 1537 1536 1536 1536 1535 1535 1536 1536 1536 1536 1536 1536 1536
1510 1513 1515 1517 1519 1521 1523 1525 1526 1527 1528 1529 1530 1531 1532 1532 1533 1534 1534 1534 1535 1535 1536 1536 1536 1536 1536 1536 1536 1536 1536 1535 1535 1535 1535 1534 1534 1534 1534 1534 1535 1536 1535
1509 1511 1513 1515 1517 1519 1521 1522 1524 1525 1526 1527 1528 1528 1529 1530 1530 1531 1532 1532 1532 1533 1533 1534 1534 1534 1534 1534 1534 1534 1534 1534 1534 1533 1533 1533 1533 1533 1532 1532 1533 1533 1534
1507 1508 1510 1512 1514 1516 1518 1520 1521 1522 1524 1525 1525 1526 1526 1527 1528 1528 1529 1529 1530 1530 1531 1531 1532 1532 1532 1533 1532 1532 1532 1532 1532 1532 1532 1531 1531 1531 1531 1531 1531 1531 1532
1505 1506 1508 1510 1512 1513 1515 1517 1518 1520 1521 1522 1523 1524 1524 1525 1525 1526 1526 1527 1527 1528 1528 1529 1529 1530 1530 1530 1530 1530 1530 1530 1530 1530 1530 1529 1529 1529 1529 1529 1529 1529 1529
1503 1504 1506 1507 1509 1510 1512 1514 1515 1517 1518 1519 1520 1521 1522 1522 1523 1523 1524 1524 1525 1525 1526 1526 1527 1527 1527 1528 1528 1528 1528 1528 1528 1527 1527 1527 1527 1527 1527 1527 1527 1527 1527
1500 1502 1503 1505 1506 1507 1509 1510 1512 1513 1515 1516 1517 1518 1519 1519 1520 1521 1521 1522 1522 1522 1523 1523 1523 1524 1524 1525 1525 1525 1525 1525 1525 1525 1524 1524 1524 1524 1524 1524 1524 1524 1524
1498 1499 1500 1502 1503 1504 1506 1507 1509 1510 1511 1513 1514 1515 1515 1516 1517 1518 1518 1519 1519 1519 1520 1520 1520 1521 1521 1521 1521 1522 1522 1522 1522 1522 1521 1521 1521 1521 1521 1521 1521 1521 1521
1496 1497 1498 1499 1500 1501 1502 1504 1505 1507 1508 1509 1510 1511 1512 1513 1514 1514 1515 1515 1516 1516 1517 1517 1517 1517 1517 1517 1518 1518 1518 1518 1518 1518 1518 1518 1517 1517 1517 1517 1517 1517 1518
1494 1495 1495 1496 1497 1498 1499 1500 1502 1503 1504 1506 1507 1508 1509 1510 1510 1511 1512 1512 1513 1513 1513 1513 1513 1514 1513 1514 1514 1514 1515 1515 1515 1515 1515 1514 1514 1514 1514 1514 1514 1514 1514
1492 1492 1493 1494 1495 1495 1496 1497 1498 1500 1501 1502 1503 1504 1505 1506 1507 1508 1508 1509 1509 1509 1509 1509 1510 1510 1510 1510 1510 1511 1511 1511 1511 1511 1511 1511 1511 1511 1511 1511 1511 1511 1511
1490 1490 1491 1492 1492 1493 1493 1494 1495 1496 1497 1498 1499 1500 1502 1502 1503 1504 1504 1505 1505 1505 1506 1506 1506 1506 1506 1507 1507 1507 1507 1507 1507 1507 1507 1507 1508 1507 1507 1508 1508 1507 1507
1488 1488 1488 1489 1490 1490 1491 1492 1492 1493 1494 1495 1495 1497 1498 1498 1499 1500 1501 1501 1502 1502 1502 1502 1503 1503 1503 1503 1503 1504 1504 1504 1504 1503 1503 1503 1504 1504 1504 1504 1504 1504 1504
1486 1486 1486 1486 1487 1487 1488 1489 1489 1490 1491 1491 1492 1493 1494 1494 1495 1496 1497 1497 1498 1498 1499 1499 1499 1499 1499 1499 1499 1500 1500 1500 1500 1500 1500 1500 1500 1500 1500 1500 1500 1500 1501
1483 1483 1483 1484 1484 1484 1485 1485 1486 1487 1488 1488 1489 1490 1490 1491 1492 1492 1493 1494 1494 1494 1495 1495 1495 1495 1496 1496 1495 1496 1496 1496 1497 1497 1496 1496 1496 1496 1497 1497 1497 1497 1497
1481 1481 1481 1481 1481 1481 1482 1482 1483 1483 1484 1485 1485 1486 1487 1487 1488 1489 1489 1490 1490 1491 1491 1491 1492 1492 1492 1492 1492 1492 1492 1493 1493 1493 1493 1493 1493 1493 1493 1493 1493 1493 1493
1479 1479 1478 1478 1478 1478 1478 1479 1479 1479 1480 1481 1482 1482 1483 1484 1484 1485 1485 1486 1486 1487 1487 1488 1488 1488 1488 1489 1488 1488 1489 1489 1489 1489 1489 1489 1489 1489 1489 1489 1489 1489 1489
1476 1476 1476 1475 1475 1475 1475 1475 1475 1476 1477 1477 1478 1478 1479 1480 1480 1481 1481 1482 1482 1483 1483 1484 1484 1485 1485 1485 1485 1485 1485 1485 1485 1485 1485 1485 1485 1485 1485 1485 1485 1485 1485
1473 1472 1472 1472 1472 1472 1471 1471 1472 1472 1473 1473 1474 1474 1475 1475 1476 1477 1477 1478 1479 1479 1479 1480 1480 1480 1481 1481 1481 1481 1481 1481 1481 1481 1481 1480 1480 1480 1480 1480 1480 1480 1480